User: anonymous   Login
Location: Ajisawe
(8.4333°N, 4.3833°E)
Time: 12:08:42
(UTC+00:00)
Language:

Cosmos 405 - Orbit

View from above orbital plane
View from above orbital plane
View from above satellite
View from above satellite

Ground track
Ground track

The orbit data is extracted from the following two-line orbital elements,

1  5117U 71028A   20226.72200770 +.00001170 +00000-0 +32328-4 0  9990
2  5117 081.2606 072.0026 0011009 120.5516 284.4022 15.36114622689429
Epoch (UTC): 13 August 2020 17:19:41
Eccentricity: 0.0011009
inclination: 81.2606°
perigee height: 450 km
apogee height: 465 km
right ascension of ascending node: 72.0026°
argument of perigee: 120.5516°
revolutions per day: 15.36114622
mean anomaly at epoch: 284.4022°
orbit number at epoch: 68942

The dashed part of the orbit path shows where the satellite is in the earth's shadow,  

DLR